Weather in Vinnytsia

Ukraine / Vinnytsia Region     49°13′57″N   28°28′07″E
temp.,
°C
wind,
m/s
gust,
m/s
humid.,
%
clouds,
%
prec.,
mm/h
press.,
hPa
HPBL,
m
10 may, mon
mon1000:00+7se34635 0.0 102769
03:00+6sse35675 0.0 102778
06:00+5sse34701 0.0 102761
09:00+11sse34575 0.0 1027359
12:00+15se44475 0.0 10261416
15:00+17se44440 0.0 10251603
18:00+16se33480 0.0 10241434
21:00+11ese34670 0.0 102481
11 may, tue
tue1100:00+9ese34710 0.0 102483
03:00+7ese34790 0.0 102489
06:00+7e24760 0.0 102479
09:00+12ene35535 0.0 1023499
12:00+16ne35465 0.0 1021905
15:00+18ne34535 0.0 10191206
18:00+18ne45595 0.0 10181086
21:00+14ne368160 0.0 1017146
12 may, wed
wed1200:00+12ene39935 0.0 1017289
03:00+10e488613 0.0 1016503
06:00+6ene5119116 0.0 1017460
09:00+8e7107768 0.0 1017959
12:00+10ese6863100 0.1 10161381
15:00+11e4764100 0.1 10151164
18:00+12ese3563100 0.0 10141023
21:00+10ese2672100 0.1 1013259
13 may, thu
thu1300:00+9se378326 0.1 1012267
03:00+6se37901 0.1 1012142
06:00+7se41080100 0.0 1011290
09:00+11sse6116654 0.0 1010735
12:00+12sse71065100 0.0 1011851
15:00+11se41087100 1.3 1010618
18:00+12se41189100 1.1 1009636
21:00+11se41094100 1.2 1009371
14 may, fri
fri1400:00+10se369799 0.3 1008193
03:00+8sse249666 0.3 100896
06:00+8sse229687 0.0 100852
09:00+13ssw348275 0.0 1008393
12:00+17sw236699 0.1 10091189
15:00+17wsw2269100 1.8 10091027
18:00+17wsw1170100 0.8 1009523
21:00+14nw1185100 0.9 101010